Satellite: ASTRA 1B
Catalog number: 21139
Epoch time:      102354.00000000
Element set:     155 
Inclination:        0.0122 deg
RA of node:       319.8851 deg
Eccentricity:    0.0002995
Arg of perigee:    65.1991 deg
Mean anomaly:      82.5138 deg
Mean motion:    1.00273184 rev/day
Decay rate:    1.4299E-006 rev/day^2
Epoch rev:            3158
Checksum:              248

Satellite: METEOSAT 5 (MO
Catalog number: 21140
Epoch time:      102363.65036304
Element set:     656 
Inclination:        5.5171 deg
RA of node:        70.2778 deg
Eccentricity:    0.0000970
Arg of perigee:   174.8988 deg
Mean anomaly:     149.9174 deg
Mean motion:    1.00277616 rev/day
Decay rate:    2.2000E-007 rev/day^2
Epoch rev:            4553
Checksum:              287

Satellite: NOAA 12
Catalog number: 21263
Epoch time:      102363.86064155
Element set:     914 
Inclination:       98.6207 deg
RA of node:       349.3660 deg
Eccentricity:    0.0012876
Arg of perigee:   165.6824 deg
Mean anomaly:     194.4722 deg
Mean motion:   14.25044583 rev/day
Decay rate:    6.6500E-006 rev/day^2
Epoch rev:           60399
Checksum:              322

Satellite: OSCAR 22 (UoSA
Catalog number: 21575
Epoch time:      102364.51809031
Element set:     688 
Inclination:       98.1364 deg
RA of node:       354.1814 deg
Eccentricity:    0.0006624
Arg of perigee:   289.5006 deg
Mean anomaly:      70.5462 deg
Mean motion:   14.39117950 rev/day
Decay rate:    6.5300E-006 rev/day^2
Epoch rev:           60108
Checksum:              413

Satellite: METEOR 3-5
Catalog number: 21655
Epoch time:      102362.55779235
Element set:     487 
Inclination:       82.5579 deg
RA of node:        75.6159 deg
Eccentricity:    0.0013158
Arg of perigee:   333.8656 deg
Mean anomaly:      26.1802 deg
Mean motion:   13.16976982 rev/day
Decay rate:    5.1000E-007 rev/day^2
Epoch rev:           54663
Checksum:              340

Satellite: UARS
Catalog number: 21701
Epoch time:      102364.14036569
Element set:     787 
Inclination:       56.9818 deg
RA of node:       236.1440 deg
Eccentricity:    0.0006710
Arg of perigee:   108.8978 deg
Mean anomaly:     251.2687 deg
Mean motion:   15.02744427 rev/day
Decay rate:    1.3580E-005 rev/day^2
Epoch rev:           61813
Checksum:              427

Satellite: EUTELSAT 2-F3
Catalog number: 21803
Epoch time:      102363.05922455
Element set:     503 
Inclination:        2.4701 deg
RA of node:        89.6357 deg
Eccentricity:    0.0002539
Arg of perigee:   211.7707 deg
Mean anomaly:     198.6604 deg
Mean motion:    1.00268612 rev/day
Decay rate:    1.3600E-006 rev/day^2
Epoch rev:            3648
Checksum:              276

Satellite: INMARSAT 2-F3
Catalog number: 21814
Epoch time:      102362.49032362
Element set:     590 
Inclination:        1.7131 deg
RA of node:        57.7049 deg
Eccentricity:    0.0002407
Arg of perigee:   211.9834 deg
Mean anomaly:     221.6065 deg
Mean motion:    1.00274371 rev/day
Decay rate:    1.2100E-006 rev/day^2
Epoch rev:            4037
Checksum:              244

Satellite: INMARSAT 2-F4
Catalog number: 21940
Epoch time:      102357.10755977
Element set:     559 
Inclination:        2.3705 deg
RA of node:        19.4226 deg
Eccentricity:    0.0001162
Arg of perigee:   237.3054 deg
Mean anomaly:     342.4959 deg
Mean motion:    1.00278479 rev/day
Decay rate:   -3.3900E-006 rev/day^2
Epoch rev:            3910
Checksum:              293

Satellite: EUTELSAT 2-F4
Catalog number: 22028
Epoch time:      102362.84798612
Element set:     310 
Inclination:        1.5895 deg
RA of node:        93.1633 deg
Eccentricity:    0.0005375
Arg of perigee:   186.1710 deg
Mean anomaly:     110.7169 deg
Mean motion:    1.00271376 rev/day
Decay rate:   -9.0999E-007 rev/day^2
Epoch rev:            3125
Checksum:              296

Satellite: OSCAR 23 (KITS
Catalog number: 22077
Epoch time:      102363.17907714
Element set:     143 
Inclination:       66.0867 deg
RA of node:       233.3467 deg
Eccentricity:    0.0014648
Arg of perigee:   285.4589 deg
Mean anomaly:      74.4812 deg
Mean motion:   12.86406913 rev/day
Decay rate:   -3.7000E-007 rev/day^2
Epoch rev:           48769
Checksum:              333

Satellite: ASTRA 1C
Catalog number: 22653
Epoch time:      102354.00000000
Element set:     781 
Inclination:        0.0122 deg
RA of node:       319.8851 deg
Eccentricity:    0.0002995
Arg of perigee:    65.1991 deg
Mean anomaly:      82.5058 deg
Mean motion:    1.00273184 rev/day
Decay rate:    1.4299E-006 rev/day^2
Epoch rev:            3028
Checksum:              252

Satellite: METEOR 2-21
Catalog number: 22782
Epoch time:      102363.62164126
Element set:     478 
Inclination:       82.5494 deg
RA of node:       255.3035 deg
Eccentricity:    0.0023437
Arg of perigee:   126.4646 deg
Mean anomaly:     233.8693 deg
Mean motion:   13.83526158 rev/day
Decay rate:    1.6699E-006 rev/day^2
Epoch rev:           47104
Checksum:              328

Satellite: KITSAT B
Catalog number: 22825
Epoch time:      102364.54641263
Element set:     450 
Inclination:       98.2797 deg
RA of node:        31.7834 deg
Eccentricity:    0.0009408
Arg of perigee:    50.7983 deg
Mean anomaly:     309.4034 deg
Mean motion:   14.28924555 rev/day
Decay rate:    3.0399E-006 rev/day^2
Epoch rev:           48273
Checksum:              326

Satellite: POSAT 1
Catalog number: 22826
Epoch time:      102364.51444657
Element set:     292 
Inclination:       98.2812 deg
RA of node:        32.8444 deg
Eccentricity:    0.0009940
Arg of perigee:    49.0085 deg
Mean anomaly:     311.1958 deg
Mean motion:   14.29145751 rev/day
Decay rate:    3.3399E-006 rev/day^2
Epoch rev:           48277
Checksum:              326

Satellite: ITAMSAT
Catalog number: 22828
Epoch time:      102364.15680377
Element set:     389 
Inclination:       98.2748 deg
RA of node:        32.7669 deg
Eccentricity:    0.0010756
Arg of perigee:    30.6325 deg
Mean anomaly:     329.5483 deg
Mean motion:   14.29490569 rev/day
Decay rate:    2.9499E-006 rev/day^2
Epoch rev:           45092
Checksum:              353

Satellite: EYESAT A
Catalog number: 22829
Epoch time:      102364.52490621
Element set:     413 
Inclination:       98.2789 deg
RA of node:        33.6985 deg
Eccentricity:    0.0010631
Arg of perigee:    29.4279 deg
Mean anomaly:     330.7500 deg
Mean motion:   14.29741352 rev/day
Decay rate:    4.2599E-006 rev/day^2
Epoch rev:           48290
Checksum:              318

Satellite: METEOSAT 6
Catalog number: 22912
Epoch time:      102363.07376159
Element set:     615 
Inclination:        2.5479 deg
RA of node:        82.6906 deg
Eccentricity:    0.0002862
Arg of perigee:   207.8238 deg
Mean anomaly:     202.8288 deg
Mean motion:    1.00267117 rev/day
Decay rate:    7.0999E-007 rev/day^2
Epoch rev:            3178
Checksum:              316

Satellite: GOES 8
Catalog number: 23051
Epoch time:      102360.26373866
Element set:     534 
Inclination:        0.4828 deg
RA of node:       100.2918 deg
Eccentricity:    0.0002373
Arg of perigee:   159.6753 deg
Mean anomaly:     214.8309 deg
Mean motion:    1.00266681 rev/day
Decay rate:   -2.3899E-006 rev/day^2
Epoch rev:            3926
Checksum:              301

Satellite: ASTRA 1D
Catalog number: 23331
Epoch time:      102362.90693288
Element set:     796 
Inclination:        0.0566 deg
RA of node:       200.0786 deg
Eccentricity:    0.0003606
Arg of perigee:    30.3573 deg
Mean anomaly:     217.5587 deg
Mean motion:    1.00276769 rev/day
Decay rate:    1.5099E-006 rev/day^2
Epoch rev:            3035
Checksum:              292

Satellite: RADIO ROSTO
Catalog number: 23439
Epoch time:      102363.82780362
Element set:     671 
Inclination:       64.8132 deg
RA of node:       123.5318 deg
Eccentricity:    0.0148217
Arg of perigee:   125.0723 deg
Mean anomaly:     236.4203 deg
Mean motion:   11.27548309 rev/day
Decay rate:   -4.1000E-007 rev/day^2
Epoch rev:           32987
Checksum:              284

Satellite: NOAA 14
Catalog number: 23455
Epoch time:      102363.85496775
Element set:     468 
Inclination:       99.1892 deg
RA of node:        16.0881 deg
Eccentricity:    0.0009599
Arg of perigee:    16.3440 deg
Mean anomaly:     343.8039 deg
Mean motion:   14.13277714 rev/day
Decay rate:    3.4100E-006 rev/day^2
Epoch rev:           41231
Checksum:              320

Satellite: HIMAWARI 5 (GM
Catalog number: 23522
Epoch time:      102362.15301858
Element set:     28 
Inclination:        1.6274 deg
RA of node:        82.6443 deg
Eccentricity:    0.0001574
Arg of perigee:   105.7388 deg
Mean anomaly:     103.3444 deg
Mean motion:    1.00277757 rev/day
Decay rate:   -2.7099E-006 rev/day^2
Epoch rev:            2836
Checksum:              291

Satellite: HOT BIRD 1
Catalog number: 23537
Epoch time:      102350.98339209
Element set:     530 
Inclination:        0.0894 deg
RA of node:        72.1866 deg
Eccentricity:    0.0004167
Arg of perigee:   105.4513 deg
Mean anomaly:     274.8892 deg
Mean motion:    1.00271885 rev/day
Decay rate:    1.1199E-006 rev/day^2
Epoch rev:            2833
Checksum:              294

Satellite: GOES 9
Catalog number: 23581
Epoch time:      102354.75358751
Element set:     441 
Inclination:        0.5117 deg
RA of node:        95.2472 deg
Eccentricity:    0.0006996
Arg of perigee:   240.2116 deg
Mean anomaly:     278.5179 deg
Mean motion:    1.00272358 rev/day
Decay rate:   -5.8000E-007 rev/day^2
Epoch rev:            2776
Checksum:              300

